Home > Weather > Haywards Heath > Past weeks

Flag for United Kingdom Past Weather in Haywards Heath, England, United Kingdom — Yesterday and Last 2 Weeks

Now
70 °F

Clear.


Feels Like: 70 °F
Forecast: 64 / 85 °F
Wind: 5 mph from East

Location: London / Gatwick Airport

Current Time: Aug 23, 2016 at 10:07:21 PM

Latest Report: Aug 23, 2016 at 9:20 PM


Visibility: 10 mi

Pressure: 30.09 "Hg

Humidity: 78%

Dew Point: 63 °F

Location of Haywards HeathLocation

Past Weather in Haywards Heath — Graph

°F

Haywards Heath Temperature Yesterday

Maximum temperature yesterday: 73 °F (at 1:50 PM)
Minimum temperature yesterday: 59 °F (at 11:50 PM)
Average temperature yesterday: 66 °F

High & Low Weather Summary for the Past Weeks

 TemperatureHumidityPressure
High82 °F (Aug 23, 2:20 PM)100% (Aug 12, 6:20 AM)30.30 "Hg (Aug 12, 6:20 AM)
Low46 °F (Aug 15, 4:50 AM)43% (Aug 9, 2:20 PM)29.68 "Hg (Aug 19, 4:50 PM)
Average63 °F76%30.09 "Hg
* Reported Aug 8 8:20 PM — Aug 23 8:50 PM, Haywards Heath, Weather by CustomWeather, © 2016

Note: Actual official high and low records may vary slightly from our data, if they occured in-between our weather recording intervals... More about our weather records

Advertising

Haywards Heath Weather History for the Previous 24 Hours

Scroll right to see more
 ConditionsComfort  
Time TempWeatherWind HumidityBarometerVisibility
8:50 PM
Tue, Aug 23
72 °FSunny.5 mph73%30.09 "Hg10 mi
8:20 PM75 °FSunny.3 mph65%30.09 "Hg10 mi
7:50 PM77 °FSunny.5 mph57%30.12 "Hg10 mi
7:20 PM79 °FPassing clouds.5 mph54%30.12 "HgN/A
6:50 PM81 °FSunny.8 mph54%30.12 "Hg10 mi
6:20 PM81 °FPassing clouds.9 mph51%30.12 "HgN/A
5:50 PM81 °FSunny.12 mph51%30.12 "Hg10 mi
5:20 PM81 °FPassing clouds.12 mph51%30.12 "HgN/A
4:50 PM81 °FSunny.10 mph51%30.12 "Hg10 mi
4:20 PM81 °FPassing clouds.12 mph51%30.15 "HgN/A
3:50 PM82 °FSunny.12 mph48%30.15 "Hg10 mi
3:20 PM82 °FSunny.9 mph48%30.15 "Hg10 mi
2:50 PM82 °FSunny.12 mph48%30.18 "Hg10 mi
2:20 PM82 °FPassing clouds.12 mph48%30.18 "HgN/A
1:50 PM81 °FPassing clouds.9 mph48%30.18 "HgN/A
1:20 PM81 °FPassing clouds.10 mph51%30.18 "HgN/A
12:50 PM79 °FPassing clouds.9 mph54%30.18 "HgN/A
12:20 PM79 °FSunny.8 mph54%30.21 "Hg10 mi
11:50 AM77 °FPassing clouds.8 mph57%30.21 "HgN/A
11:20 AM77 °FPassing clouds.8 mph57%30.21 "HgN/A
10:50 AM75 °FPassing clouds.7 mph61%30.24 "HgN/A
10:20 AM73 °FPassing clouds.7 mph61%30.24 "HgN/A
9:50 AM72 °FSunny.5 mph65%30.24 "Hg10 mi
9:20 AM68 °FPassing clouds.5 mph78%30.24 "HgN/A
8:50 AM63 °FSunny.5 mph88%30.24 "Hg10 mi
8:20 AM61 °FFog.5 mph88%30.27 "HgN/A
7:50 AM59 °FLight fog.5 mph94%30.27 "Hg4 mi
7:20 AM55 °FFog.5 mph100%30.27 "Hg2 mi
6:50 AM55 °FFog.5 mph100%30.27 "Hg4 mi
6:20 AM54 °FFog.6 mph100%30.27 "Hg4 mi
5:50 AM54 °FCool.5 mph100%30.27 "Hg1 mi
5:20 AM54 °FPassing clouds.2 mph94%30.24 "Hg4 mi
4:50 AM52 °FFog.No wind100%30.24 "Hg3 mi
4:20 AM54 °FFog.No wind94%30.24 "Hg3 mi
3:50 AM54 °FCool.2 mph100%30.27 "Hg2 mi
3:20 AM54 °FCool.2 mph100%30.27 "Hg2 mi
2:50 AM55 °FFog.3 mph94%30.27 "Hg3 mi
2:20 AM55 °FFog.2 mph100%30.27 "Hg3 mi
1:50 AM55 °FFog.2 mph100%30.27 "Hg3 mi
1:20 AM57 °FClear.No wind100%30.27 "Hg4 mi
12:50 AM57 °FClear.No wind100%30.27 "Hg4 mi
12:20 AM59 °FClear.5 mph94%30.27 "Hg5 mi
11:50 PM
Mon, Aug 22
59 °FClear.2 mph94%30.27 "Hg10 mi
11:20 PM61 °FClear.No wind94%30.27 "Hg10 mi
10:50 PM61 °FClear.2 mph94%30.27 "Hg10 mi
10:20 PM61 °FClear.3 mph94%30.27 "Hg10 mi
Weather by CustomWeather, © 2016

See weather overviewHow to use our weather pages